[[{"header":{"parameterUnit":"m.s-1","parameterCategory":2,"la1":30.2991,"la2":30.254,"lo1":-89.0895,"lo2":-89.0444,"dy":0.0017,"dx":0.0017,"nx":28,"ny":28,"refTime":"2023-10-22T03:00:00:Z","depth":"0","parameterNumber":2,"parameterNumberName":"U-component_of_CURRENTS"},"data":[0,0,0,0,0,0,0,0,0,0,0,0,0,0,0,0,0,0,0,0,0,0,0,0,0,0,0,0,0,0,0,0,0,0,0,0,0,0,0,0,0,0,0,0,0,0,0,0,0,0,0,0,0,0,0,0,0,0,-0.2571,-0.2572,0,-0.2596,-0.2596,-0.2596,-0.2526,-0.2524,-0.2522,-0.252,-0.2382,-0.2381,-0.2379,0,0,0,0,0,0,0,0,0,0,0,0,0,-0.2405,-0.2408,-0.2571,-0.2572,-0.2572,-0.2596,-0.2596,-0.2596,-0.2526,-0.2524,-0.2522,-0.252,-0.2383,-0.2381,-0.2378,0,0,0,0,0,0,0,0,0,0,0,0,0,-0.2454,-0.2409,-0.2571,-0.2544,-0.2542,-0.2596,-0.2596,-0.2596,-0.2526,-0.2524,-0.2521,-0.2519,-0.2384,-0.2381,-0.2378,-0.2412,0,0,-0.2369,-0.2367,0,0,0,0,0,0,0,0,-0.2451,-0.2459,-0.2547,-0.2546,-0.2544,-0.2559,-0.2487,-0.2528,-0.2527,-0.2527,-0.252,-0.2517,-0.2431,-0.2424,-0.2431,-0.2405,-0.2399,-0.2368,-0.2367,-0.2365,-0.2364,0,0,0,0,0,0,0,-0.2448,-0.2458,-0.2576,-0.2548,-0.2546,-0.2511,-0.2515,-0.2494,-0.2487,-0.2527,-0.2523,-0.2534,-0.2428,-0.2434,-0.2426,-0.2397,-0.2368,-0.2366,-0.2364,-0.2363,-0.2431,-0.2434,0,0,0,0,0,0,-0.2461,-0.2456,-0.2575,-0.2577,-0.2495,-0.2516,-0.2521,-0.2553,-0.2491,-0.2482,-0.2536,-0.2531,-0.244,-0.243,-0.2421,-0.2492,-0.2365,-0.2362,-0.2361,-0.2427,-0.2431,-0.2435,0,0,0,0,0,0,-0.2458,-0.2472,-0.2574,-0.2518,-0.2529,-0.2523,-0.2559,-0.2555,-0.2548,-0.2501,-0.2486,-0.2533,-0.2438,-0.2425,-0.2425,-0.2484,-0.2361,-0.2358,-0.2423,-0.2428,-0.2433,-0.261,0,0,0,0,0,0,-0.2453,-0.2472,-0.2492,-0.2521,-0.2533,-0.2614,-0.2562,-0.2557,-0.2562,-0.2554,-0.2493,-0.2479,-0.2435,-0.243,-0.2422,-0.2477,-0.2356,-0.2418,-0.2425,-0.2432,-0.2599,-0.2621,-0.2639,0,0,0,0,0,-0.2447,-0.2486,-0.2494,-0.2507,-0.2566,-0.2617,-0.262,-0.2601,-0.2564,-0.258,-0.255,-0.248,-0.2468,-0.2431,-0.242,-0.2476,-0.2415,-0.2423,-0.2431,-0.2591,-0.2616,-0.2638,0,0,0,0,0,0,-0.2402,-0.2484,-0.2492,-0.2547,-0.2585,-0.2606,-0.2618,-0.2608,-0.2599,-0.2581,-0.2519,-0.2506,-0.2532,-0.2485,-0.2446,-0.252,-0.2433,-0.2439,-0.2558,-0.2582,-0.2601,-0.2596,-0.2353,0,0,0,0,0,-0.2414,-0.2471,-0.253,-0.2569,-0.2596,-0.2609,-0.2622,-0.262,-0.2622,-0.2613,-0.2579,-0.2554,-0.2565,-0.2554,-0.2545,-0.2576,-0.2489,-0.2609,-0.2629,-0.2646,-0.2639,-0.2614,-0.263,-0.2462,-0.2462,-0.2462,0,0,-0.2403,-0.2456,-0.2484,-0.2565,-0.2588,-0.2662,-0.2608,-0.2644,-0.2698,-0.26,-0.2642,-0.2616,-0.259,-0.2639,-0.2646,-0.2599,-0.264,-0.2656,-0.2671,-0.2654,-0.2624,-0.264,-0.2654,-0.2468,-0.2467,-0.2466,0,0,-0.243,-0.2467,-0.2535,-0.259,-0.2654,-0.2681,-0.2696,-0.2734,-0.2739,-0.2791,-0.2747,-0.2764,-0.2757,-0.2769,-0.2772,-0.2895,-0.2749,-0.2884,-0.2973,-0.2951,-0.2964,-0.2974,-0.284,-0.2836,-0.2891,-0.2891,-0.2892,0,-0.2407,-0.2521,-0.2554,-0.2644,-0.2693,-0.27,-0.2781,-0.2816,-0.2843,-0.2844,-0.2823,-0.2837,-0.2834,-0.2888,-0.2954,-0.294,-0.2848,-0.2884,-0.2974,-0.2983,-0.299,-0.285,-0.2844,-0.2901,-0.29,-0.2899,-0.2898,0,-0.25,-0.2599,-0.264,-0.2773,-0.2822,-0.2892,-0.2957,-0.2984,-0.2989,-0.3003,-0.3036,-0.3039,-0.3031,-0.3066,-0.3058,-0.3118,-0.3006,-0.3003,-0.2907,-0.3017,-0.2862,-0.2853,-0.2914,-0.2911,-0.2908,-0.2906,0,0,-0.242,-0.2666,-0.2676,-0.2756,-0.29,-0.293,-0.304,-0.3111,-0.312,-0.3167,-0.3176,-0.3269,-0.3217,-0.322,-0.3202,-0.3214,-0.3215,-0.3141,-0.3135,-0.2992,-0.3061,-0.2878,-0.2847,-0.3215,-0.3215,-0.3216,-0.2915,0,-0.2479,-0.2675,-0.2782,-0.2929,-0.3027,-0.3087,-0.3168,-0.3217,-0.3237,-0.3243,-0.3263,-0.3271,-0.3293,-0.3275,-0.3306,-0.3236,-0.3204,-0.3289,-0.2988,-0.2977,-0.2791,-0.2838,-0.2736,-0.2452,-0.2904,-0.2903,-0.2901,0,-0.2522,-0.2657,-0.2835,-0.3004,-0.304,-0.3116,-0.3173,-0.3247,-0.3284,-0.3292,-0.3309,-0.3288,-0.3328,-0.3324,-0.325,-0.3288,-0.3193,-0.3132,-0.3119,-0.2878,-0.2779,-0.2426,-0.2415,-0.2438,-0.2885,-0.2887,-0.2888,0,-0.2418,-0.2666,-0.2802,-0.2872,-0.3072,-0.3111,-0.3176,-0.3233,-0.3258,-0.3294,-0.3263,-0.3305,-0.3239,-0.3231,-0.3121,-0.3183,-0.2961,-0.3025,-0.2743,-0.2723,-0.254,-0.2504,-0.2505,-0.2948,-0.2949,-0.295,-0.2951,0,-0.2431,-0.2516,-0.2759,-0.2825,-0.2908,-0.3044,-0.3086,-0.3143,-0.32,-0.3141,-0.3251,-0.3134,-0.3212,-0.3089,-0.3069,-0.2826,-0.2905,-0.2733,-0.2652,-0.2593,-0.2567,-0.2498,-0.2543,-0.2938,-0.2941,-0.2943,-0.2945,0,-0.2292,-0.2475,-0.2614,-0.2828,-0.2875,-0.2906,-0.3036,-0.3035,-0.3106,-0.3023,-0.3026,-0.2979,-0.2776,-0.2783,-0.2658,-0.2652,-0.2467,-0.2405,-0.2271,-0.2183,-0.2014,-0.2071,-0.1914,-0.186,-0.2091,-0.2085,-0.208,0,-0.2245,-0.2322,-0.2556,-0.2595,-0.269,-0.2777,-0.2807,-0.2958,-0.2938,-0.2836,-0.2737,-0.2557,-0.226,-0.2033,-0.207,-0.1962,-0.2068,-0.1825,-0.1988,-0.1966,-0.1972,-0.2061,-0.2038,-0.1783,-0.1775,-0.177,-0.1765,0,-0.2112,-0.2199,-0.2304,-0.2424,-0.248,-0.2557,-0.2604,-0.2573,-0.2622,-0.2499,-0.2164,-0.1911,-0.1668,-0.146,-0.1414,-0.1409,-0.1824,-0.1696,-0.1752,-0.1785,-0.1805,-0.1724,-0.1952,-0.1713,-0.1718,-0.1722,-0.1725,-0.1727,-0.1942,-0.1975,-0.2111,-0.2195,-0.227,-0.2256,-0.2182,-0.2168,-0.2023,-0.1729,-0.1607,-0.113,-0.1042,-0.0924,-0.0973,-0.1167,-0.1288,-0.1256,-0.1324,-0.1416,-0.1399,-0.1449,-0.1095,-0.1096,-0.1098,-0.1099,-0.11,0,-0.1688,-0.1767,-0.1857,-0.1946,-0.1937,-0.2053,-0.1973,-0.1811,-0.148,-0.123,-0.088,-0.0437,-0.0374,-0.0502,-0.0828,-0.0887,-0.0985,-0.0931,-0.1113,-0.1108,-0.1194,-0.1222,-0.0787,-0.0787,-0.0787,-0.0787,-0.0787,-0.0787,-0.1544,-0.1541,-0.1635,-0.1587,-0.1626,-0.1484,-0.1359,-0.1116,-0.0899,-0.0353,-0.0012,0.0202,0.0045,-0.0509,-0.0854,-0.0875,-0.0948,-0.0865,-0.0938,-0.1105,-0.1146,-0.1185,-0.1228,-0.08,-0.0801,-0.0841,-0.0841,-0.0841]},{"header":{"parameterUnit":"m.s-1","parameterCategory":2,"la1":30.2991,"la2":30.254,"lo1":-89.0895,"lo2":-89.0444,"dy":0.0017,"dx":0.0017,"nx":28,"ny":28,"refTime":"2023-10-22T03:00:00:Z","depth":"0","parameterNumber":3,"parameterNumberName":"V-component_of_CURRENTS"},"data":[0,0,0,0,0,0,0,0,0,0,0,0,0,0,0,0,0,0,0,0,0,0,0,0,0,0,0,0,0,0,0,0,0,0,0,0,0,0,0,0,0,0,0,0,0,0,0,0,0,0,0,0,0,0,0,0,0,0,-0.1224,-0.1222,0,-0.1046,-0.1044,-0.1042,-0.0933,-0.0933,-0.0932,-0.0932,-0.0717,-0.0712,-0.0707,0,0,0,0,0,0,0,0,0,0,0,0,0,-0.1309,-0.1309,-0.1224,-0.1222,-0.122,-0.1046,-0.1044,-0.1042,-0.0934,-0.0933,-0.0932,-0.0932,-0.0719,-0.0713,-0.0706,0,0,0,0,0,0,0,0,0,0,0,0,0,-0.1217,-0.1309,-0.1224,-0.1145,-0.1136,-0.1047,-0.1044,-0.1041,-0.0934,-0.0933,-0.0932,-0.0931,-0.0721,-0.0713,-0.0706,-0.0675,0,0,-0.0682,-0.0678,0,0,0,0,0,0,0,0,-0.1222,-0.1214,-0.1159,-0.115,-0.114,-0.1011,-0.0995,-0.0917,-0.0934,-0.1011,-0.0932,-0.0931,-0.0812,-0.0797,-0.0766,-0.0665,-0.0656,-0.0681,-0.0676,-0.0673,-0.0671,0,0,0,0,0,0,0,-0.1229,-0.122,-0.1154,-0.1156,-0.1145,-0.1062,-0.105,-0.0979,-0.0918,-0.1004,-0.0996,-0.0976,-0.0807,-0.0774,-0.076,-0.0653,-0.0681,-0.0674,-0.067,-0.0667,-0.0456,-0.0455,0,0,0,0,0,0,-0.126,-0.1227,-0.116,-0.1149,-0.1179,-0.1062,-0.1048,-0.1053,-0.0919,-0.0898,-0.0976,-0.0971,-0.0788,-0.077,-0.0752,-0.0661,-0.0673,-0.0666,-0.0661,-0.0457,-0.0456,-0.0455,0,0,0,0,0,0,-0.1263,-0.1257,-0.1167,-0.1181,-0.1164,-0.1063,-0.1069,-0.105,-0.1011,-0.0899,-0.0877,-0.0955,-0.0786,-0.0763,-0.0687,-0.0654,-0.0662,-0.0655,-0.0458,-0.0456,-0.0455,-0.0509,0,0,0,0,0,0,-0.1267,-0.126,-0.1269,-0.1185,-0.1165,-0.113,-0.1069,-0.1047,-0.1,-0.0991,-0.0874,-0.0853,-0.0784,-0.0699,-0.0679,-0.0644,-0.0649,-0.0459,-0.0457,-0.0455,-0.0509,-0.051,-0.0511,0,0,0,0,0,-0.1271,-0.1297,-0.1271,-0.1262,-0.1184,-0.1131,-0.1114,-0.1036,-0.1,-0.0995,-0.0907,-0.0856,-0.0673,-0.0693,-0.0669,-0.0631,-0.046,-0.0458,-0.0456,-0.0508,-0.051,-0.0511,0,0,0,0,0,0,-0.1342,-0.1286,-0.1256,-0.1265,-0.1207,-0.1113,-0.1091,-0.1043,-0.0968,-0.0952,-0.085,-0.0824,-0.074,-0.0686,-0.071,-0.0565,-0.0555,-0.0548,-0.0603,-0.0603,-0.0605,-0.0647,-0.0643,0,0,0,0,0,-0.1363,-0.1368,-0.1295,-0.1301,-0.1273,-0.1182,-0.1147,-0.1099,-0.1022,-0.0988,-0.0903,-0.0806,-0.0713,-0.0663,-0.0584,-0.0513,-0.0447,-0.047,-0.0472,-0.0473,-0.0491,-0.0385,-0.0379,-0.0448,-0.0448,-0.0448,0,0,-0.1397,-0.136,-0.1366,-0.1315,-0.1256,-0.1218,-0.1159,-0.1115,-0.1071,-0.0976,-0.0893,-0.0811,-0.0698,-0.061,-0.0567,-0.056,-0.0409,-0.047,-0.0472,-0.049,-0.0382,-0.0376,-0.037,-0.0446,-0.0446,-0.0447,0,0,-0.1454,-0.1427,-0.1441,-0.1395,-0.1318,-0.1252,-0.1245,-0.1152,-0.1098,-0.1018,-0.0928,-0.0836,-0.0704,-0.0612,-0.0547,-0.051,-0.0423,-0.0479,-0.0511,-0.0407,-0.0401,-0.0395,-0.0266,-0.0248,-0.0475,-0.0475,-0.0475,0,-0.1493,-0.1494,-0.1435,-0.1419,-0.1383,-0.1272,-0.1264,-0.1184,-0.1078,-0.1038,-0.1002,-0.0795,-0.0698,-0.0578,-0.0559,-0.051,-0.044,-0.0515,-0.041,-0.0403,-0.0395,-0.0265,-0.0245,-0.0478,-0.0477,-0.0477,-0.0477,0,-0.1546,-0.1535,-0.1533,-0.1472,-0.1432,-0.1405,-0.1296,-0.1246,-0.1161,-0.1073,-0.0955,-0.0821,-0.0712,-0.0644,-0.0583,-0.0481,-0.044,-0.0428,-0.0413,-0.0392,-0.0255,-0.0233,-0.0481,-0.048,-0.0479,-0.0479,0,0,-0.165,-0.1589,-0.1582,-0.1561,-0.146,-0.1431,-0.1364,-0.1271,-0.121,-0.109,-0.1007,-0.084,-0.0781,-0.0707,-0.061,-0.0504,-0.0365,-0.0457,-0.045,-0.0342,-0.0117,-0.0074,-0.0045,-0.0342,-0.034,-0.0338,-0.0028,0,-0.1698,-0.1704,-0.1649,-0.1622,-0.1608,-0.1505,-0.1442,-0.1345,-0.1232,-0.1118,-0.0966,-0.0846,-0.0795,-0.0737,-0.063,-0.0415,-0.0316,-0.0449,-0.0144,-0.0135,-0.011,-0.0022,0.0038,0.0318,-0.0006,-0.0002,0.0,0,-0.1754,-0.1747,-0.1762,-0.1692,-0.1674,-0.164,-0.1536,-0.1469,-0.1291,-0.1201,-0.1084,-0.0955,-0.077,-0.0741,-0.0412,-0.0502,-0.0344,-0.0184,-0.0168,-0.0105,-0.0052,0.024,0.0371,0.0484,0.0035,0.0032,0.003,0,-0.185,-0.1812,-0.183,-0.1809,-0.1717,-0.1709,-0.1654,-0.1512,-0.142,-0.1267,-0.1142,-0.0971,-0.0779,-0.062,-0.0305,-0.0361,0.0081,0.005,0.0235,0.0243,0.0365,0.0376,0.0625,0.0235,0.0234,0.0233,0.0233,0,-0.1913,-0.1914,-0.188,-0.1885,-0.1881,-0.1801,-0.1753,-0.1671,-0.1499,-0.1308,-0.1202,-0.0973,-0.0736,-0.045,-0.0284,0.0084,0.0096,0.0252,0.0326,0.0352,0.0358,0.0515,0.0536,0.0245,0.0243,0.024,0.0238,0,-0.1995,-0.1974,-0.1988,-0.1944,-0.1929,-0.1935,-0.1818,-0.1734,-0.1579,-0.1324,-0.1263,-0.0905,-0.0519,-0.0283,0.0102,0.0203,0.0578,0.0574,0.06,0.0668,0.086,0.0875,0.1193,0.1305,0.0807,0.081,0.0813,0,-0.2026,-0.2055,-0.2058,-0.2057,-0.2038,-0.2019,-0.1955,-0.1812,-0.1652,-0.1216,-0.1032,-0.0637,-0.024,0.0292,0.0477,0.0752,0.0819,0.0944,0.0814,0.0904,0.0978,0.0969,0.1037,0.0995,0.0999,0.1002,0.1004,0,-0.2073,-0.209,-0.2095,-0.2127,-0.2094,-0.2014,-0.1884,-0.1742,-0.1439,-0.1175,-0.0656,-0.0328,0.0193,0.0586,0.087,0.1001,0.1028,0.1011,0.1122,0.1155,0.1152,0.1284,0.0767,0.1032,0.1029,0.1027,0.1025,0.1024,-0.2078,-0.2111,-0.2127,-0.2143,-0.2104,-0.1915,-0.1725,-0.1481,-0.1155,-0.0561,-0.0364,0.0215,0.0664,0.109,0.1176,0.1367,0.13,0.1418,0.1443,0.1436,0.1488,0.1021,0.1331,0.133,0.1329,0.1328,0.1328,0,-0.2021,-0.2068,-0.2115,-0.2052,-0.1943,-0.1934,-0.1576,-0.1259,-0.0755,-0.0324,0.0141,0.08,0.121,0.1484,0.1725,0.1796,0.1784,0.1846,0.1857,0.1917,0.1552,0.1497,0.1836,0.1835,0.1835,0.1835,0.1835,0.1835,-0.1976,-0.2007,-0.2052,-0.1888,-0.1809,-0.1476,-0.1199,-0.0726,-0.0328,0.0389,0.0837,0.1149,0.1596,0.1931,0.2152,0.2167,0.2296,0.2257,0.2331,0.2052,0.2012,0.1974,0.1929,0.2353,0.2353,0.2703,0.2706,0.2709]}],[{"header":{"parameterUnit":"m.s-1","parameterCategory":2,"la1":30.2991,"la2":30.254,"lo1":-89.0895,"lo2":-89.0444,"dy":0.0017,"dx":0.0017,"nx":28,"ny":28,"refTime":"2023-10-22T03:00:00:Z","depth":"2","parameterNumber":2,"parameterNumberName":"U-component_of_CURRENTS"},"data":[0,0,0,0,0,0,0,0,0,0,0,0,0,0,0,0,0,0,0,0,0,0,0,0,0,0,0,0,0,0,0,0,0,0,0,0,0,0,0,0,0,0,0,0,0,0,0,0,0,0,0,0,0,0,0,0,0,0,-0.2442,-0.2446,0,-0.2727,-0.2729,-0.2731,-0.2768,-0.2766,-0.2765,-0.2763,-0.2844,-0.2847,-0.2851,0,0,0,0,0,0,0,0,0,0,0,0,0,-0.223,-0.223,-0.2442,-0.2447,-0.2452,-0.2726,-0.2729,-0.2731,-0.2768,-0.2766,-0.2764,-0.2763,-0.2843,-0.2847,-0.2851,0,0,0,0,0,0,0,0,0,0,0,0,0,-0.2384,-0.223,-0.2441,-0.2513,-0.2524,-0.2726,-0.2729,-0.2732,-0.2768,-0.2766,-0.2764,-0.2762,-0.2841,-0.2846,-0.2851,-0.2926,0,0,-0.2867,-0.287,0,0,0,0,0,0,0,0,-0.2375,-0.239,-0.2498,-0.2509,-0.2521,-0.2722,-0.2685,-0.2792,-0.2769,-0.266,-0.2763,-0.2761,-0.2795,-0.2804,-0.2845,-0.2929,-0.2933,-0.2868,-0.2871,-0.2873,-0.2875,0,0,0,0,0,0,0,-0.2364,-0.238,-0.254,-0.2504,-0.2518,-0.2637,-0.2651,-0.2707,-0.2721,-0.2669,-0.2676,-0.2732,-0.2798,-0.284,-0.2846,-0.2934,-0.2868,-0.2872,-0.2875,-0.2877,-0.2946,-0.2945,0,0,0,0,0,0,-0.2345,-0.2368,-0.2531,-0.255,-0.2458,-0.2641,-0.2658,-0.2648,-0.2725,-0.2741,-0.2734,-0.2733,-0.2832,-0.284,-0.2849,-0.282,-0.2873,-0.2878,-0.2881,-0.2948,-0.2946,-0.2945,0,0,0,0,0,0,-0.2338,-0.2354,-0.252,-0.2482,-0.2513,-0.2646,-0.2636,-0.2655,-0.2711,-0.2779,-0.2787,-0.2772,-0.2831,-0.2842,-0.2874,-0.2827,-0.288,-0.2885,-0.2949,-0.2947,-0.2945,-0.2839,0,0,0,0,0,0,-0.2329,-0.2347,-0.236,-0.2477,-0.2514,-0.2603,-0.2641,-0.2663,-0.2755,-0.2756,-0.2815,-0.282,-0.283,-0.2866,-0.2879,-0.2835,-0.2889,-0.2951,-0.2948,-0.2946,-0.2844,-0.2834,-0.2825,0,0,0,0,0,-0.2319,-0.2356,-0.2356,-0.238,-0.2514,-0.2605,-0.2631,-0.2714,-0.2758,-0.276,-0.2802,-0.2818,-0.2858,-0.2871,-0.2886,-0.2842,-0.2952,-0.2949,-0.2946,-0.2848,-0.2836,-0.2825,0,0,0,0,0,0,-0.2283,-0.2368,-0.237,-0.2429,-0.2488,-0.2615,-0.2682,-0.2732,-0.278,-0.2784,-0.2832,-0.2839,-0.2851,-0.2872,-0.2885,-0.2853,-0.2898,-0.2898,-0.2818,-0.2807,-0.2797,-0.2829,-0.2893,0,0,0,0,0,-0.2276,-0.2307,-0.2389,-0.2432,-0.2469,-0.2573,-0.2641,-0.2672,-0.274,-0.2763,-0.2798,-0.2829,-0.2856,-0.2851,-0.2884,-0.2884,-0.2897,-0.2857,-0.2847,-0.2838,-0.2873,-0.2835,-0.2825,-0.2935,-0.2935,-0.2935,0,0,-0.2272,-0.2335,-0.2349,-0.2426,-0.2495,-0.2522,-0.2603,-0.2683,-0.2689,-0.2764,-0.2783,-0.2823,-0.286,-0.2843,-0.2846,-0.2846,-0.2806,-0.2835,-0.2827,-0.2868,-0.2831,-0.282,-0.2811,-0.2933,-0.2934,-0.2934,0,0,-0.2268,-0.2329,-0.2331,-0.2378,-0.2472,-0.2528,-0.2546,-0.2638,-0.266,-0.269,-0.2736,-0.276,-0.2794,-0.2797,-0.281,-0.2781,-0.2781,-0.2761,-0.2711,-0.267,-0.2661,-0.2653,-0.2618,-0.2608,-0.2723,-0.2723,-0.2723,0,-0.2241,-0.2272,-0.2352,-0.2366,-0.2428,-0.2517,-0.2526,-0.2563,-0.2638,-0.2665,-0.2666,-0.2746,-0.2776,-0.2775,-0.2747,-0.276,-0.2734,-0.2746,-0.2656,-0.2649,-0.2643,-0.261,-0.26,-0.2718,-0.2718,-0.2719,-0.2719,0,-0.2221,-0.2255,-0.2284,-0.2304,-0.2358,-0.2406,-0.2457,-0.2485,-0.2539,-0.2574,-0.2605,-0.2642,-0.2691,-0.2669,-0.2706,-0.2667,-0.2661,-0.2669,-0.2683,-0.2625,-0.2594,-0.2585,-0.271,-0.2712,-0.2713,-0.2715,0,0,-0.2106,-0.2233,-0.2231,-0.2266,-0.2343,-0.239,-0.2399,-0.2451,-0.249,-0.2499,-0.2538,-0.2559,-0.2607,-0.2628,-0.2649,-0.26,-0.2524,-0.2601,-0.2602,-0.2564,-0.2418,-0.2322,-0.2304,-0.2489,-0.2488,-0.2487,-0.2399,0,-0.2051,-0.2091,-0.2161,-0.2196,-0.2241,-0.2327,-0.2346,-0.2393,-0.2442,-0.2485,-0.2512,-0.2558,-0.2574,-0.2599,-0.2554,-0.2568,-0.2504,-0.2549,-0.2487,-0.2487,-0.2404,-0.2293,-0.2131,-0.2031,-0.2391,-0.239,-0.2389,0,-0.198,-0.2047,-0.2074,-0.2205,-0.2228,-0.2243,-0.2344,-0.2369,-0.2432,-0.2469,-0.2497,-0.2546,-0.2538,-0.2547,-0.2486,-0.2501,-0.2465,-0.2439,-0.2434,-0.2392,-0.2376,-0.2156,-0.2004,-0.2377,-0.2378,-0.2378,-0.2379,0,-0.1901,-0.1985,-0.203,-0.2066,-0.2195,-0.2224,-0.2287,-0.2361,-0.2398,-0.2465,-0.2484,-0.2504,-0.2508,-0.2463,-0.2433,-0.2451,-0.2337,-0.2358,-0.2228,-0.2222,-0.2106,-0.209,-0.2293,-0.2293,-0.2294,-0.2294,-0.2294,0,-0.1851,-0.1889,-0.2005,-0.204,-0.2093,-0.2196,-0.2243,-0.2308,-0.2385,-0.241,-0.2473,-0.2473,-0.248,-0.243,-0.2404,-0.2274,-0.2306,-0.2213,-0.2182,-0.2059,-0.2041,-0.2381,-0.2392,-0.2291,-0.2291,-0.2292,-0.2293,0,-0.1762,-0.1843,-0.1904,-0.203,-0.2061,-0.2098,-0.2204,-0.2229,-0.2322,-0.2348,-0.2367,-0.2424,-0.2348,-0.2317,-0.2249,-0.2213,-0.213,-0.2074,-0.1933,-0.1886,-0.2055,-0.2062,-0.193,-0.1926,-0.1922,-0.1919,-0.1917,0,-0.1732,-0.175,-0.1853,-0.1874,-0.193,-0.1999,-0.2025,-0.2161,-0.2177,-0.23,-0.2277,-0.227,-0.2231,-0.2092,-0.1983,-0.1867,-0.1974,-0.1696,-0.1716,-0.203,-0.2013,-0.2026,-0.2038,-0.1509,-0.1504,-0.1499,-0.1495,0,-0.1662,-0.1681,-0.1724,-0.1751,-0.1784,-0.1815,-0.1869,-0.1885,-0.2026,-0.2066,-0.2116,-0.2134,-0.2015,-0.1828,-0.1673,-0.1602,-0.1708,-0.1596,-0.1921,-0.1632,-0.1626,-0.1613,-0.1639,-0.1454,-0.1458,-0.1461,-0.1463,-0.1465,-0.1571,-0.1565,-0.1586,-0.16,-0.1621,-0.1594,-0.157,-0.1637,-0.1663,-0.1695,-0.1858,-0.1809,-0.1822,-0.1468,-0.1367,-0.1252,-0.138,-0.1356,-0.1373,-0.1395,-0.1367,-0.1355,-0.1127,-0.1129,-0.1131,-0.1133,-0.1134,0,-0.1449,-0.1439,-0.1436,-0.1423,-0.1355,-0.1427,-0.142,-0.1365,-0.1339,-0.1411,-0.146,-0.134,-0.1211,-0.1184,-0.0935,-0.0919,-0.0938,-0.0897,-0.0934,-0.0974,-0.101,-0.0967,-0.0618,-0.0617,-0.0616,-0.0615,0,0,-0.1385,-0.1324,-0.1316,-0.1156,-0.113,-0.0998,-0.0964,-0.0936,-0.0938,-0.0907,-0.0908,-0.1056,-0.1125,-0.0864,-0.0815,-0.0667,-0.0811,-0.0623,-0.1029,-0.1108,-0.1143,-0.1257,-0.1232,0,0,0,0,0]},{"header":{"parameterUnit":"m.s-1","parameterCategory":2,"la1":30.2991,"la2":30.254,"lo1":-89.0895,"lo2":-89.0444,"dy":0.0017,"dx":0.0017,"nx":28,"ny":28,"refTime":"2023-10-22T03:00:00:Z","depth":"2","parameterNumber":3,"parameterNumberName":"V-component_of_CURRENTS"},"data":[0,0,0,0,0,0,0,0,0,0,0,0,0,0,0,0,0,0,0,0,0,0,0,0,0,0,0,0,0,0,0,0,0,0,0,0,0,0,0,0,0,0,0,0,0,0,0,0,0,0,0,0,0,0,0,0,0,0,-0.0109,-0.0106,0,0.0141,0.0144,0.0147,0.0229,0.0228,0.0227,0.0226,0.0583,0.0593,0.0604,0,0,0,0,0,0,0,0,0,0,0,0,0,-0.0248,-0.0247,-0.0109,-0.0106,-0.0103,0.0141,0.0144,0.0148,0.0229,0.0228,0.0226,0.0225,0.058,0.0592,0.0605,0,0,0,0,0,0,0,0,0,0,0,0,0,-0.0113,-0.0247,-0.0109,-0.0032,-0.0023,0.014,0.0144,0.0149,0.0229,0.0228,0.0226,0.0224,0.0576,0.0591,0.0607,0.0736,0,0,0.0655,0.0662,0,0,0,0,0,0,0,0,-0.0121,-0.0108,-0.0047,-0.0037,-0.0027,0.0153,0.0227,0.035,0.023,0.0133,0.0225,0.0224,0.0451,0.0477,0.0525,0.0752,0.0768,0.0656,0.0666,0.0672,0.0677,0,0,0,0,0,0,0,-0.0131,-0.0116,-0.001,-0.0043,-0.0031,0.0082,0.0097,0.0251,0.0299,0.0141,0.0148,0.0177,0.0457,0.0509,0.0534,0.0773,0.0656,0.067,0.0679,0.0686,0.1105,0.1107,0,0,0,0,0,0,-0.0173,-0.0127,-0.0018,-0.0003,-0.0078,0.0084,0.0101,0.0096,0.0296,0.0324,0.0178,0.018,0.0483,0.0516,0.0547,0.061,0.0672,0.0687,0.0696,0.1104,0.1106,0.1107,0,0,0,0,0,0,-0.0177,-0.0167,-0.0028,-0.0056,-0.0031,0.0086,0.0082,0.0102,0.0155,0.0322,0.0352,0.0209,0.0483,0.0525,0.0673,0.0628,0.0694,0.0709,0.1102,0.1104,0.1107,0.0801,0,0,0,0,0,0,-0.0183,-0.0171,-0.0168,-0.0061,-0.0031,0.0038,0.0084,0.0108,0.0176,0.018,0.036,0.0391,0.0485,0.0648,0.0688,0.0651,0.0721,0.1099,0.1103,0.1106,0.0809,0.0793,0.0779,0,0,0,0,0,-0.0189,-0.0191,-0.0171,-0.0155,-0.004,0.0038,0.0063,0.0144,0.0178,0.0189,0.0317,0.0385,0.0696,0.0663,0.071,0.0675,0.1098,0.1102,0.1105,0.0816,0.0796,0.0779,0,0,0,0,0,0,-0.0251,-0.0179,-0.0156,-0.0137,-0.0069,0.005,0.0088,0.0146,0.0259,0.0269,0.0422,0.0463,0.058,0.07,0.0659,0.0817,0.0906,0.0919,0.0669,0.0653,0.0638,0.0607,0.0734,0,0,0,0,0,-0.0264,-0.0251,-0.0168,-0.0153,-0.0124,-0.0016,0.0037,0.0081,0.019,0.0237,0.0357,0.0504,0.0639,0.0697,0.0847,0.0938,0.1015,0.0952,0.0937,0.0922,0.0937,0.099,0.0977,0.112,0.112,0.112,0,0,-0.0283,-0.0239,-0.0231,-0.0163,-0.01,-0.007,0.001,0.0066,0.0091,0.0266,0.0345,0.0477,0.0666,0.0749,0.081,0.0831,0.0919,0.0927,0.0911,0.0936,0.0992,0.0977,0.0963,0.1123,0.1122,0.1122,0,0,-0.0313,-0.0282,-0.0279,-0.0235,-0.0156,-0.01,-0.0092,0.0012,0.0055,0.0157,0.0278,0.0374,0.0593,0.067,0.0754,0.0768,0.0858,0.0821,0.0685,0.0732,0.0718,0.0707,0.0734,0.0728,0.0782,0.0781,0.0781,0,-0.0337,-0.0329,-0.0263,-0.0249,-0.0216,-0.0127,-0.012,-0.006,0.0074,0.0119,0.0148,0.0427,0.0549,0.065,0.0626,0.0721,0.0767,0.0707,0.0699,0.0691,0.0685,0.0717,0.0713,0.0767,0.0769,0.077,0.0771,0,-0.0361,-0.0356,-0.0351,-0.032,-0.0278,-0.0259,-0.0186,-0.0145,-0.008,-0.001,0.0109,0.0257,0.0416,0.0441,0.0533,0.0555,0.0605,0.0677,0.0707,0.0649,0.069,0.0691,0.0747,0.0752,0.0756,0.076,0,0,-0.042,-0.038,-0.0379,-0.0379,-0.0317,-0.029,-0.0262,-0.0197,-0.0163,-0.0076,-0.002,0.0129,0.0199,0.0302,0.0402,0.0407,0.0355,0.0489,0.0499,0.045,0.0437,0.0483,0.0491,0.0401,0.0401,0.0401,0.0459,0,-0.046,-0.0471,-0.0428,-0.0441,-0.0441,-0.0368,-0.0344,-0.0278,-0.0201,-0.0132,-0.0024,0.0087,0.0148,0.0204,0.0214,0.0375,0.0358,0.0333,0.0565,0.0573,0.0564,0.0495,0.0461,0.0513,0.0462,0.0463,0.0463,0,-0.0491,-0.0498,-0.0521,-0.0502,-0.0493,-0.049,-0.043,-0.0395,-0.0288,-0.022,-0.0134,-0.0013,0.0054,0.0103,0.0245,0.0224,0.0301,0.0377,0.0383,0.0546,0.0624,0.0587,0.0521,0.0469,0.0468,0.0468,0.0467,0,-0.0555,-0.0556,-0.0582,-0.0578,-0.0545,-0.054,-0.0518,-0.0427,-0.0388,-0.0279,-0.0228,-0.0107,-0.0024,0.0073,0.0241,0.0239,0.0386,0.0422,0.0523,0.0527,0.0614,0.0626,0.0482,0.0482,0.0482,0.0481,0.0481,0,-0.0606,-0.0626,-0.0622,-0.0639,-0.0669,-0.0615,-0.061,-0.0556,-0.0471,-0.0423,-0.0289,-0.0209,-0.003,0.0096,0.0211,0.0381,0.037,0.0496,0.0545,0.0508,0.0509,0.0594,0.0606,0.0484,0.0483,0.0483,0.0482,0,-0.0659,-0.0658,-0.0696,-0.0697,-0.0702,-0.0725,-0.0694,-0.0676,-0.0584,-0.0517,-0.0485,-0.0285,-0.0105,0.0067,0.0265,0.0366,0.0514,0.0568,0.0502,0.0543,0.0618,0.0615,0.0674,0.0676,0.0678,0.0679,0.068,0,-0.0685,-0.071,-0.0754,-0.079,-0.0798,-0.0819,-0.0823,-0.075,-0.0718,-0.055,-0.0519,-0.0319,-0.0138,0.0167,0.0365,0.0567,0.0566,0.0642,0.064,0.0595,0.0638,0.0632,0.0626,0.0614,0.0615,0.0616,0.0616,0,-0.0736,-0.0751,-0.0786,-0.0867,-0.0904,-0.093,-0.0927,-0.092,-0.0808,-0.0718,-0.0521,-0.0356,-0.0031,0.0237,0.0484,0.0584,0.061,0.066,0.0643,0.0578,0.0547,0.0586,0.0581,0.062,0.062,0.062,0.0619,0.0619,-0.0768,-0.0813,-0.0862,-0.0934,-0.0981,-0.1015,-0.1028,-0.0988,-0.0925,-0.0758,-0.0578,-0.0294,-0.0024,0.0364,0.0539,0.0689,0.069,0.0719,0.0714,0.071,0.07,0.0674,0.0768,0.0768,0.0769,0.0769,0.0769,0,-0.0799,-0.0846,-0.0921,-0.0998,-0.1048,-0.1058,-0.1066,-0.1039,-0.0962,-0.0763,-0.0555,-0.0232,0.0069,0.0348,0.0614,0.0768,0.0726,0.0767,0.0695,0.069,0.0686,0.0671,0.0734,0.0734,0.0735,0.0735,0,0,-0.0818,-0.0888,-0.0929,-0.1026,-0.1074,-0.1111,-0.1115,-0.1059,-0.0922,-0.0717,-0.0491,-0.0242,0.013,0.0295,0.0482,0.0637,0.0608,0.0623,0.0634,0.052,0.0513,0.0642,0.0613,0,0,0,0,0]}],[{"header":{"parameterUnit":"m.s-1","parameterCategory":2,"la1":30.2991,"la2":30.254,"lo1":-89.0895,"lo2":-89.0444,"dy":0.0017,"dx":0.0017,"nx":28,"ny":28,"refTime":"2023-10-22T03:00:00:Z","depth":"4","parameterNumber":2,"parameterNumberName":"U-component_of_CURRENTS"},"data":[0,0,0,0,0,0,0,0,0,0,0,0,0,0,0,0,0,0,0,0,0,0,0,0,0,0,0,0,0,0,0,0,0,0,0,0,0,0,0,0,0,0,0,0,0,0,0,0,0,0,0,0,0,0,0,0,0,0,-0.1317,-0.1318,0,-0.1357,-0.1357,-0.1357,-0.1357,-0.1357,-0.1357,-0.1357,-0.1442,-0.1444,-0.1447,0,0,0,0,0,0,0,0,0,0,0,0,0,-0.1212,-0.1213,-0.1317,-0.1318,-0.1319,-0.1357,-0.1357,-0.1357,-0.1357,-0.1357,-0.1357,-0.1357,-0.1441,-0.1444,-0.1447,0,0,0,0,0,0,0,0,0,0,0,0,0,-0.125,-0.1214,-0.1316,-0.1327,-0.1329,-0.1357,-0.1357,-0.1357,-0.1357,-0.1357,-0.1357,-0.1357,-0.144,-0.1444,-0.1447,-0.1471,0,0,-0.1458,-0.1459,0,0,0,0,0,0,0,0,-0.1248,-0.1253,-0.1324,-0.1326,-0.1328,-0.1357,-0.1352,-0.1399,-0.1357,-0.1341,-0.1357,-0.1357,-0.1421,-0.1426,-0.1426,-0.1475,-0.1478,-0.1458,-0.146,-0.1462,-0.1463,0,0,0,0,0,0,0,-0.1245,-0.1252,-0.1327,-0.1326,-0.1328,-0.1321,-0.1326,-0.136,-0.1378,-0.1342,-0.1344,-0.1356,-0.1422,-0.1422,-0.1428,-0.148,-0.1458,-0.1461,-0.1463,-0.1465,-0.1541,-0.1541,0,0,0,0,0,0,-0.1253,-0.125,-0.1326,-0.1329,-0.1293,-0.1323,-0.1328,-0.1343,-0.1376,-0.1383,-0.1356,-0.1356,-0.1417,-0.1424,-0.1431,-0.1498,-0.1462,-0.1465,-0.1467,-0.1541,-0.1541,-0.1541,0,0,0,0,0,0,-0.125,-0.1259,-0.1325,-0.1294,-0.1302,-0.1326,-0.1342,-0.1344,-0.1371,-0.1388,-0.1393,-0.1384,-0.1417,-0.1426,-0.1469,-0.15,-0.1467,-0.147,-0.1541,-0.1541,-0.1541,-0.1609,0,0,0,0,0,0,-0.1247,-0.1258,-0.1275,-0.1295,-0.1305,-0.1356,-0.1343,-0.1345,-0.138,-0.138,-0.1413,-0.1419,-0.1417,-0.1464,-0.1473,-0.1505,-0.1472,-0.1541,-0.1541,-0.1541,-0.1607,-0.1612,-0.1616,0,0,0,0,0,-0.1243,-0.1261,-0.1276,-0.1285,-0.1326,-0.1357,-0.1361,-0.1373,-0.1382,-0.1396,-0.1411,-0.1419,-0.1468,-0.1467,-0.1477,-0.1511,-0.1541,-0.1541,-0.1541,-0.1605,-0.1611,-0.1615,0,0,0,0,0,0,-0.1222,-0.1264,-0.128,-0.131,-0.1342,-0.1359,-0.1375,-0.1393,-0.1416,-0.1424,-0.1434,-0.1441,-0.1483,-0.1483,-0.1482,-0.1525,-0.1501,-0.1503,-0.1546,-0.1551,-0.1555,-0.1575,-0.1475,0,0,0,0,0,-0.1229,-0.1255,-0.1294,-0.132,-0.1338,-0.1365,-0.1383,-0.14,-0.1423,-0.1434,-0.1458,-0.1472,-0.1486,-0.151,-0.1517,-0.1563,-0.1554,-0.1581,-0.1586,-0.1589,-0.1608,-0.1608,-0.1615,-0.154,-0.154,-0.154,0,0,-0.1225,-0.1256,-0.1269,-0.1319,-0.134,-0.138,-0.1375,-0.1414,-0.1453,-0.1443,-0.1498,-0.1496,-0.1497,-0.1529,-0.1549,-0.1542,-0.1602,-0.1589,-0.1593,-0.161,-0.1608,-0.1616,-0.1623,-0.154,-0.154,-0.154,0,0,-0.1234,-0.1263,-0.1291,-0.1327,-0.138,-0.1401,-0.1423,-0.1464,-0.1485,-0.1536,-0.1526,-0.1546,-0.1582,-0.1583,-0.1588,-0.1624,-0.1618,-0.1622,-0.1678,-0.1677,-0.1684,-0.169,-0.1681,-0.1686,-0.1632,-0.1632,-0.1632,0,-0.1232,-0.1281,-0.1303,-0.1349,-0.1388,-0.1418,-0.1467,-0.1494,-0.1545,-0.157,-0.1562,-0.1601,-0.1606,-0.1643,-0.1647,-0.164,-0.1632,-0.1666,-0.1686,-0.1692,-0.1697,-0.1686,-0.169,-0.1635,-0.1635,-0.1635,-0.1634,0,-0.1266,-0.1317,-0.1338,-0.1408,-0.1447,-0.1494,-0.1543,-0.1586,-0.1618,-0.1642,-0.1688,-0.1683,-0.1704,-0.1703,-0.1694,-0.1732,-0.1711,-0.1688,-0.1682,-0.1709,-0.1695,-0.1698,-0.164,-0.1639,-0.1638,-0.1637,0,0,-0.1237,-0.1342,-0.1356,-0.1405,-0.1491,-0.1524,-0.1595,-0.1662,-0.1708,-0.1743,-0.1792,-0.1808,-0.1802,-0.1806,-0.1792,-0.18,-0.1823,-0.177,-0.1769,-0.1776,-0.1821,-0.1674,-0.1664,-0.1807,-0.1808,-0.1809,-0.1794,0,-0.1265,-0.1358,-0.1408,-0.1501,-0.1551,-0.1612,-0.1673,-0.1736,-0.1776,-0.1824,-0.1833,-0.1861,-0.1842,-0.1848,-0.1859,-0.1829,-0.1836,-0.1829,-0.178,-0.1779,-0.1658,-0.1664,-0.1812,-0.1797,-0.1797,-0.1798,-0.1798,0,-0.1284,-0.1351,-0.1445,-0.1559,-0.1587,-0.1646,-0.1748,-0.1806,-0.1874,-0.1903,-0.1938,-0.1935,-0.1962,-0.1926,-0.1921,-0.1918,-0.1883,-0.1857,-0.1855,-0.1702,-0.1639,-0.1762,-0.1804,-0.1803,-0.1803,-0.1803,-0.1802,0,-0.125,-0.1376,-0.1454,-0.1496,-0.1622,-0.1679,-0.1743,-0.1828,-0.1868,-0.1946,-0.1962,-0.2003,-0.1997,-0.1989,-0.1928,-0.1934,-0.1898,-0.1892,-0.1732,-0.1721,-0.1832,-0.1825,-0.1888,-0.1888,-0.1888,-0.1888,-0.1888,0,-0.1255,-0.1321,-0.1447,-0.1493,-0.1575,-0.1672,-0.1751,-0.182,-0.1899,-0.1921,-0.1989,-0.1987,-0.2011,-0.1982,-0.1949,-0.1834,-0.191,-0.1745,-0.1708,-0.1857,-0.1854,-0.1833,-0.1827,-0.1888,-0.1888,-0.1888,-0.1888,0,-0.12,-0.1291,-0.1377,-0.1518,-0.1559,-0.1612,-0.1731,-0.1769,-0.1868,-0.1894,-0.1913,-0.1972,-0.1927,-0.1917,-0.188,-0.1821,-0.1752,-0.1689,-0.1844,-0.1816,-0.1581,-0.1579,-0.1537,-0.1532,-0.1527,-0.1524,-0.152,0,-0.1177,-0.122,-0.136,-0.1394,-0.146,-0.1551,-0.1595,-0.1725,-0.1746,-0.1851,-0.1831,-0.1843,-0.1848,-0.1689,-0.1708,-0.1633,-0.1602,-0.1586,-0.1601,-0.1577,-0.1546,-0.1551,-0.1554,-0.1513,-0.1512,-0.1511,-0.151,0,-0.1122,-0.1178,-0.1244,-0.1305,-0.1362,-0.1412,-0.1484,-0.1492,-0.1612,-0.1722,-0.1696,-0.1679,-0.1617,-0.1585,-0.1516,-0.147,-0.1618,-0.1539,-0.1549,-0.1564,-0.1548,-0.1522,-0.1531,-0.1494,-0.1496,-0.1498,-0.1499,0,-0.1062,-0.1081,-0.1155,-0.1191,-0.1244,-0.1235,-0.1307,-0.1331,-0.1378,-0.1508,-0.1493,-0.1519,-0.1587,-0.1496,-0.1441,-0.1372,-0.1362,-0.1349,-0.1368,-0.1386,-0.1339,-0.1297,-0.1134,0,0,0,0,0,-0.0994,-0.1,-0.103,-0.1054,-0.109,-0.1111,-0.1203,-0.1276,-0.1397,-0.1331,-0.1413,-0.1354,-0.1303,-0.1332,-0.122,-0.1347,-0.1347,-0.1216,-0.1339,-0.1408,-0.1426,-0.1382,0,0,0,0,0,0,-0.095,-0.0982,-0.0989,-0.0909,-0.0889,-0.0907,-0.0954,-0.1047,-0.1028,-0.1171,-0.1137,-0.1266,-0.1211,-0.131,-0.1182,-0.1186,-0.1238,-0.1251,-0.1248,-0.1398,-0.1414,-0.1428,-0.1389,0,0,0,0,0]},{"header":{"parameterUnit":"m.s-1","parameterCategory":2,"la1":30.2991,"la2":30.254,"lo1":-89.0895,"lo2":-89.0444,"dy":0.0017,"dx":0.0017,"nx":28,"ny":28,"refTime":"2023-10-22T03:00:00:Z","depth":"4","parameterNumber":3,"parameterNumberName":"V-component_of_CURRENTS"},"data":[0,0,0,0,0,0,0,0,0,0,0,0,0,0,0,0,0,0,0,0,0,0,0,0,0,0,0,0,0,0,0,0,0,0,0,0,0,0,0,0,0,0,0,0,0,0,0,0,0,0,0,0,0,0,0,0,0,0,-0.029,-0.029,0,-0.0276,-0.0276,-0.0276,-0.0263,-0.0263,-0.0263,-0.0262,-0.0237,-0.0236,-0.0236,0,0,0,0,0,0,0,0,0,0,0,0,0,-0.0292,-0.0292,-0.029,-0.029,-0.029,-0.0276,-0.0276,-0.0276,-0.0263,-0.0263,-0.0263,-0.0262,-0.0237,-0.0236,-0.0235,0,0,0,0,0,0,0,0,0,0,0,0,0,-0.0286,-0.0292,-0.029,-0.0282,-0.0281,-0.0276,-0.0276,-0.0276,-0.0263,-0.0263,-0.0262,-0.0262,-0.0237,-0.0236,-0.0235,-0.0235,0,0,-0.0233,-0.0233,0,0,0,0,0,0,0,0,-0.0286,-0.0286,-0.0283,-0.0283,-0.0282,-0.0271,-0.0267,-0.0262,-0.0263,-0.027,-0.0262,-0.0262,-0.0247,-0.0246,-0.0243,-0.0234,-0.0233,-0.0233,-0.0232,-0.0232,-0.0232,0,0,0,0,0,0,0,-0.0287,-0.0286,-0.0285,-0.0283,-0.0282,-0.0274,-0.0273,-0.0266,-0.026,-0.0269,-0.0268,-0.0267,-0.0247,-0.0244,-0.0243,-0.0232,-0.0233,-0.0232,-0.0232,-0.0231,-0.0211,-0.0211,0,0,0,0,0,0,-0.029,-0.0287,-0.0285,-0.0284,-0.0284,-0.0274,-0.0273,-0.0275,-0.026,-0.0258,-0.0267,-0.0266,-0.0246,-0.0244,-0.0242,-0.0218,-0.0232,-0.0231,-0.0231,-0.0211,-0.0211,-0.0211,0,0,0,0,0,0,-0.029,-0.029,-0.0286,-0.0285,-0.0284,-0.0275,-0.0276,-0.0274,-0.0271,-0.0259,-0.0256,-0.0266,-0.0246,-0.0243,-0.0239,-0.0217,-0.0231,-0.023,-0.0211,-0.0211,-0.0211,-0.0184,0,0,0,0,0,0,-0.029,-0.029,-0.0293,-0.0285,-0.0284,-0.0277,-0.0276,-0.0274,-0.0271,-0.027,-0.0256,-0.0254,-0.0245,-0.024,-0.0238,-0.0217,-0.0229,-0.0211,-0.0211,-0.0211,-0.0185,-0.0183,-0.0181,0,0,0,0,0,-0.029,-0.0298,-0.0293,-0.0293,-0.0288,-0.0277,-0.0275,-0.0268,-0.0271,-0.0265,-0.0264,-0.0254,-0.0238,-0.024,-0.0237,-0.0215,-0.0211,-0.0211,-0.0211,-0.0186,-0.0183,-0.0181,0,0,0,0,0,0,-0.0304,-0.0297,-0.0291,-0.0297,-0.0283,-0.0274,-0.0277,-0.0269,-0.0264,-0.0268,-0.0258,-0.0255,-0.0243,-0.024,-0.0242,-0.0211,-0.0221,-0.022,-0.0203,-0.02,-0.0199,-0.018,-0.0229,0,0,0,0,0,-0.0307,-0.031,-0.0296,-0.03,-0.0297,-0.0287,-0.0283,-0.0274,-0.0269,-0.0267,-0.0257,-0.0251,-0.0241,-0.023,-0.0226,-0.0209,-0.0184,-0.0194,-0.0192,-0.019,-0.0175,-0.0107,-0.0097,-0.0211,-0.0211,-0.0211,0,0,-0.0316,-0.0311,-0.0314,-0.0303,-0.0298,-0.029,-0.0284,-0.0279,-0.0265,-0.0265,-0.0253,-0.0248,-0.0239,-0.0221,-0.0214,-0.0213,-0.0152,-0.019,-0.0188,-0.0174,-0.0106,-0.0094,-0.0084,-0.0211,-0.0211,-0.0211,0,0,-0.033,-0.0329,-0.0332,-0.0321,-0.0308,-0.0298,-0.0296,-0.0282,-0.0267,-0.0256,-0.0251,-0.0228,-0.0226,-0.0196,-0.0186,-0.0171,-0.0151,-0.0181,-0.0144,-0.0079,-0.0068,-0.0058,-0.0038,-0.0026,-0.0171,-0.0171,-0.0171,0,-0.0341,-0.0342,-0.033,-0.0326,-0.0321,-0.0302,-0.0299,-0.0279,-0.0261,-0.0241,-0.0251,-0.0211,-0.0204,-0.0155,-0.0154,-0.0161,-0.0142,-0.0151,-0.0073,-0.0063,-0.0053,-0.0034,-0.0021,-0.0169,-0.017,-0.017,-0.017,0,-0.0348,-0.035,-0.0354,-0.0341,-0.0329,-0.0327,-0.0297,-0.0277,-0.0264,-0.0235,-0.019,-0.017,-0.0141,-0.0134,-0.0142,-0.007,-0.0088,-0.0083,-0.0072,-0.0039,-0.0023,-0.001,-0.0168,-0.0168,-0.0168,-0.0169,0,0,-0.0375,-0.0363,-0.0365,-0.0366,-0.0339,-0.0336,-0.0301,-0.0261,-0.0239,-0.0195,-0.0154,-0.0113,-0.009,-0.0077,-0.0065,-0.0004,0.0067,-0.0017,-0.0014,0.0014,0.0181,0.0151,0.0162,0.0087,0.009,0.0092,0.0156,0,-0.0388,-0.0396,-0.0374,-0.0378,-0.0384,-0.0346,-0.032,-0.0275,-0.0234,-0.0188,-0.0118,-0.0089,-0.007,-0.0064,0.001,0.0041,0.0105,0.0047,0.0135,0.0137,0.0118,0.0178,0.0101,0.0165,0.0168,0.017,0.0172,0,-0.0398,-0.0406,-0.0417,-0.0407,-0.0405,-0.0399,-0.0355,-0.0327,-0.0239,-0.0203,-0.0122,-0.0081,0.0009,0.0012,0.0146,0.0104,0.0149,0.0187,0.019,0.017,0.0134,0.0131,0.0195,0.0193,0.0191,0.019,0.0188,0,-0.0434,-0.0434,-0.0451,-0.0449,-0.043,-0.0423,-0.0409,-0.0336,-0.0313,-0.0214,-0.019,-0.0059,-0.0026,0.0089,0.0167,0.0157,0.0304,0.0299,0.0326,0.0321,0.0315,0.0304,0.0417,0.0417,0.0416,0.0416,0.0416,0,-0.0456,-0.047,-0.0479,-0.0492,-0.0514,-0.0475,-0.0471,-0.0426,-0.0361,-0.0335,-0.0213,-0.0166,-0.0004,0.0093,0.0182,0.029,0.0324,0.0351,0.0356,0.0317,0.0306,0.0323,0.0311,0.0419,0.0418,0.0418,0.0417,0,-0.0485,-0.0489,-0.0521,-0.0527,-0.0537,-0.0556,-0.0548,-0.0536,-0.0464,-0.0427,-0.0403,-0.0249,-0.0111,0.0044,0.0212,0.0279,0.0397,0.0425,0.0352,0.0347,0.0363,0.0352,0.0473,0.0473,0.0473,0.0473,0.0473,0,-0.0497,-0.0518,-0.0569,-0.0606,-0.0618,-0.0642,-0.0657,-0.0602,-0.0582,-0.0482,-0.0466,-0.0322,-0.021,0.0019,0.0181,0.0378,0.0398,0.0445,0.0443,0.0387,0.0379,0.0368,0.0357,0.0473,0.0473,0.0473,0.0473,0,-0.0524,-0.0551,-0.0584,-0.0668,-0.0712,-0.0746,-0.0757,-0.0751,-0.0679,-0.0626,-0.0506,-0.0359,-0.0202,0.0006,0.016,0.0298,0.0415,0.0445,0.0446,0.0444,0.0388,0.0378,0.0367,0.0472,0.0472,0.0472,0.0472,0,-0.055,-0.0591,-0.0649,-0.0717,-0.0782,-0.0823,-0.0823,-0.0785,-0.0752,-0.0627,-0.0597,-0.0396,-0.0267,-0.0038,0.0103,0.0246,0.0278,0.0306,0.0315,0.0317,0.0257,0.0162,0.0202,0,0,0,0,0,-0.0568,-0.0619,-0.0692,-0.0768,-0.0832,-0.0862,-0.0872,-0.0852,-0.0792,-0.0721,-0.0648,-0.0492,-0.0241,-0.0114,0.0025,0.0086,0.0286,0.0249,0.0317,0.0471,0.0472,0.0427,0,0,0,0,0,0,-0.0585,-0.0655,-0.0695,-0.079,-0.0845,-0.0906,-0.0913,-0.0877,-0.0808,-0.0729,-0.0582,-0.0487,-0.023,-0.0324,0.0019,0.0065,0.0119,0.0381,0.0383,0.0471,0.0471,0.0472,0.0426,0,0,0,0,0]}]]